Location: Huberhof
(49.2050°N, 7.4980°E)
Time: 01:10:11
(UTC+00:00)

Cosmos 1656 - Pass Details

Date: 29 October 2020
Orbit: 796 x 851 km, 71.1° (Epoch: 26 November)

Event Time Altitude Azimuth Distance (km) Brightness Sun altitude
Rises 18:16:36 0° 221° (SW) 3,346 7.4 -20.6°
Reaches altitude 10° 18:19:03 10° 226° (SW) 2,425 6.6 -21.0°
Maximum altitude 18:24:31 54° 304° (NW) 1,008 4.3 -21.9°
Drops below altitude 10° 18:30:04 10° 22° (NNE) 2,473 6.0 -22.8°
Enters shadow 18:30:39 - 23° (NNE) 2,683 6.1 -22.9°
